Weather Roundup
Issued by NWS

Home | Current Version | Previous Version | Graphics & Text | Print | Product List | Glossary On
Versions: 1 2 3 4 5 6 7 8 9 10 11 12 13 14 15 16 17 18 19 20 21 22 23 24 25 26 27 28 29 30 31 32 33 34 35 36 37 38 39 40 41 42 43 44 45 46 47 48 49 50
000
NZUS93 KARX 220310
HRRWXR

CURRENT HOURLY OBSERVATIONS ACROSS
MUCH OF THE UPPER MISSISSIPPI VALLEY
NATIONAL WEATHER SERVICE LA CROSSE WI
1000 PM CDT SAT APR 21 2018


...SOUTHEAST MINNESOTA...


CITY           SKY/WX    TMP DP  RH WIND       PRES   REMARKS
ROCHESTER      CLOUDY    44  35  70 SE5       30.36S
ROCHESTER/MAYO CLOUDY    49  33  54 CALM      30.37R
WINONA         CLOUDY    46  36  66 CALM      30.35R
AUSTIN         FAIR      39  34  81 E3        30.36S
ALBERT LEA     FAIR      43  32  65 SE5       30.36R
DODGE CENTER   CLOUDY    43  36  75 SE5       30.37R
PRESTON        MOCLDY    46  32  58 S5        30.37R
OWATONNA       CLOUDY    45  37  76 E3        30.36R
FARIBAULT      NOT AVBL
$$

...ELSEWHERE IN MINNESOTA...


CITY           SKY/WX    TMP DP  RH WIND       PRES   REMARKS
MINNEAPOLIS    FAIR      52  34  50 SW6       30.36R
INTNL FALLS    FAIR      44  26  49 S5        30.28R
DULUTH         FAIR      44  21  40 CALM      30.34R
RED WING       FAIR      39  28  65 CALM      30.36R
REDWOOD FALLS  CLOUDY    44  35  70 CALM      30.33S
MANKATO        CLOUDY    47  36  65 SE6       30.36R
WORTHINGTON    CLOUDY    37  34  89 E3        30.32S
FAIRMONT       CLEAR     38  34  85 E3        30.35R
$$

...SOUTHWEST WISCONSIN...


CITY           SKY/WX    TMP DP  RH WIND       PRES   REMARKS
LA CROSSE      CLOUDY    50  35  56 CALM      30.37R
PRAIRIE DU CHI FAIR      44  34  68 CALM      30.37S
BOSCOBEL       FAIR      42  35  76 CALM      30.39R
LONE ROCK      FAIR      43  38  82 E3        30.39R
PLATTEVILLE    FAIR      49  37  65 E3        30.38S
FORT MC COY    FAIR      38  30  74 CALM      30.38S
CAMP DOUGLAS   FAIR      36  30  79 SE5       30.37R WCI  32
MAUSTON-NEW LI MOCLDY    39  33  80 CALM      30.37S
VIROQUA        MOCLDY    46  33  60 SE6       30.37R
WIS DELLS      CLOUDY    43  29  59 S5        30.39R
$$

...ELSEWHERE IN WISCONSIN...


CITY           SKY/WX    TMP DP  RH WIND       PRES   REMARKS
MILWAUKEE      MOCLDY    45  20  36 CALM      30.40R
MADISON        MOCLDY    45  34  65 CALM      30.39R
GREEN BAY      FAIR      40  28  62 S5        30.39R
EAU CLAIRE     FAIR      40  30  67 SW3       30.36R
BLACK RVR FLS  FAIR      32  28  85 CALM      30.37R
MEDFORD        FAIR      36  26  67 SE3       30.36S
WAUSAU         FAIR      41  28  60 CALM      30.36R
WIS RAPIDS     FAIR      39  23  52 CALM      30.38R
MARSHFIELD     FAIR      43  28  55 CALM      30.36R
RICE LAKE      FAIR      35  30  81 CALM      30.38R
$$

...NORTHEAST IOWA...


CITY           SKY/WX    TMP DP  RH WIND       PRES   REMARKS
WATERLOO       FAIR      50  32  50 SE13      30.34S
DUBUQUE        FAIR      48  34  58 E8        30.37S
DECORAH        FAIR      48  34  57 SE5       30.36S
MASON CITY     CLOUDY    38  34  85 NE7       30.36R WCI  33
CHARLES CITY   CLOUDY    46  39  76 E7        30.36R
OELWEIN        CLOUDY    48  34  57 E8        30.36R
$$

...ELSEWHERE IN IOWA...


CITY           SKY/WX    TMP DP  RH WIND       PRES   REMARKS
DES MOINES     CLOUDY    53  29  39 E13G22    30.29R
IOWA CITY      MOCLDY    53  33  46 E9        30.34S
FORT DODGE     CLOUDY    50  38  63 E12       30.30F
MARSHALLTOWN   MOCLDY    50  34  54 E12       30.30F
CEDAR RAPIDS   FAIR      51  34  52 E13       30.32F
$$

...NORTHERN ILLINOIS...


CITY           SKY/WX    TMP DP  RH WIND       PRES   REMARKS
CHICAGO-OHARE  CLOUDY    47  16  29 E5        30.40R
CHICAGO-MIDWAY CLOUDY    47  19  33 E5        30.40R
MOLINE         MOCLDY    52  34  50 E12       30.34S
ROCKFORD       CLOUDY    49  21  33 E8        30.42R
PEORIA         FAIR      52  33  48 NE10      30.33S
$$

NOTE: "FAIR" INDICATES FEW OR NO CLOUDS BELOW 12,000 FEET WITH NO
SIGNIFICANT WEATHER AND/OR OBSTRUCTIONS TO VISIBILITY. WIND
SPEEDS ARE IN MILES-PER-HOUR.




USA.gov is the U.S. government's official web portal to all federal, state and local government web resources and services.